Regional Weather Roundup
Issued by NWS

Home | Current Version | Previous Version | Graphics & Text | Print | Product List | Glossary On
Versions: 1 2 3 4 5 6 7 8 9 10 11 12 13 14 15 16 17 18 19 20 21 22 23 24 25 26 27 28 29 30 31 32 33 34 35 36 37 38 39 40 41 42 43 44 45 46 47 48 49 50
914
ASUS43 KOAX 152110
RWRNE

WEATHER ROUNDUP FOR NEBRASKA
NATIONAL WEATHER SERVICE OMAHA NE
300 PM CST FRI DEC 15 2017

NOTES: SATELLITE DATA IS BEING USED TO AUGMENT CLOUD COVER ABOVE
       12000 FEET.
       "FAIR" INDICATES FEW OR NO CLOUDS BELOW 12,000 FEET WITH NO
       SIGNIFICANT WEATHER AND/OR OBSTRUCTIONS TO VISIBILITY.


NEZ001>004-019>022-054>056-152200-
NEBRASKA PANHANDLE

CITY           SKY/WX    TMP DP  RH WIND       PRES   REMARKS
SCOTTSBLUFF    CLOUDY    57  14  18 W17G24    29.83F
ALLIANCE       CLOUDY    55  14  19 W18       29.80F
CHADRON        CLOUDY    58  14  17 W15       29.75F
GORDON         FAIR      56  17  21 W13G20    29.74F
KIMBALL        SUNNY     59  14  17 W25       29.87F
SIDNEY         CLOUDY    60  12  15 NW20G30   29.86F
$$

NEZ057>060-069>072-079>082-152200-
SOUTHWEST NEBRASKA

CITY           SKY/WX    TMP DP  RH WIND       PRES   REMARKS
NORTH PLATTE   SUNNY     56  15  20 W12       29.82F
IMPERIAL       SUNNY     60  11  14 W8        29.86F
LEXINGTON      SUNNY     55  19  24 SW14      29.85F
MCCOOK         SUNNY     59  13  16 W10G23    29.87F
OGALLALA       SUNNY     60  12  15 W14       29.83F
$$

NEZ005>010-023>029-035>040-094-152200-
NORTH CENTRAL NEBRASKA

CITY           SKY/WX    TMP DP  RH WIND       PRES   REMARKS
VALENTINE      SUNNY     52  28  39 W12       29.74F
AINSWORTH      SUNNY     50  32  50 SW9       29.75F
BROKEN BOW     SUNNY     51  26  37 SW12      29.79F
O`NEILL        SUNNY     46  29  52 SW10      29.77F
ORD            SUNNY     48  27  44 SW12      29.79F
THEDFORD       SUNNY     57  21  24 W13       29.78F
$$

NEZ041-046>049-061>064-073>077-083>087-152200-
SOUTH CENTRAL NEBRASKA

CITY           SKY/WX    TMP DP  RH WIND       PRES   REMARKS
GRAND ISLAND   SUNNY     50  27  40 W20       29.85S
AURORA         SUNNY     47  29  50 SW17G24   29.85R
HASTINGS       SUNNY     49  24  37 SW15G29   29.86F
HEBRON         SUNNY     50  27  40 SW14G22   29.89F
HOLDREGE       SUNNY     52  22  31 W15       29.87R
KEARNEY        SUNNY     51  20  29 SW17G23   29.86F
YORK           SUNNY     46  28  49 SW18      29.87R
$$

NEZ011>018-030>034-042>045-152200-
NORTHEAST NEBRASKA

CITY           SKY/WX    TMP DP  RH WIND       PRES   REMARKS
NORFOLK        SUNNY     45  28  51 SW13      29.78F
ALBION         SUNNY     47  31  54 SW12      29.80F
BLAIR          SUNNY     48  27  44 SW18      29.84F
COLUMBUS       SUNNY     46  28  49 SW14      29.85F
FREMONT        SUNNY     48  26  41 SW15      29.85F
TEKAMAH        SUNNY     48  25  40 SW16      29.84F
WAYNE          MOSUNNY   47  24  39 SW10      29.78F
$$

NEZ050>053-065>068-078-088>093-152200-
SOUTHEAST NEBRASKA

CITY           SKY/WX    TMP DP  RH WIND       PRES   REMARKS
LINCOLN        SUNNY     49  26  41 SW16      29.89F
OMAHA EPPLEY   MOSUNNY   48  24  39 SW17G24   29.86F
BEATRICE       SUNNY     49  26  41 SW17G24   29.89F
FALLS CITY     SUNNY     48  24  39 SW20G31   29.95F
NEBRASKA CITY  SUNNY     48  27  45 SW18G24   29.90F
PLATTSMOUTH    SUNNY     48  27  43 SW16G23   29.88F
$$

NEZ044-045-051>053-067-152200-
OMAHA AREA

CITY           SKY/WX    TMP DP  RH WIND       PRES   REMARKS
OMAHA EPPLEY   MOSUNNY   48  24  39 SW17G24   29.86F
BLAIR          SUNNY     48  27  44 SW18      29.84F
FREMONT        SUNNY     48  26  41 SW15      29.85F
MILLARD        SUNNY     49  27  41 SW9G17    29.87F
OFFUTT AFB     SUNNY     48  24  38 SW17G23   29.86F
PLATTSMOUTH    SUNNY     48  27  43 SW16G23   29.88F
WAHOO          FAIR      49  25  39 SW17G25   29.86F
$$




USA.gov is the U.S. government's official web portal to all federal, state and local government web resources and services.